Stations météo

réclame
Mon MeteoGroup
Sveg A, Suède (2327): Température de l'air & dewpoint: 21.04.2018 08:00:00 - 27.04.2018 08:00:00 (CEST)Sveg A, Suède (2327): Vitesse du vent & gusts: 21.04.2018 08:00:00 - 27.04.2018 08:00:00 (CEST)Sveg A, Suède (2327): Direction du vent: 21.04.2018 08:00:00 - 27.04.2018 08:00:00 (CEST)Sveg A, Suède (2327): reduced air pressure: 21.04.2018 08:00:00 - 27.04.2018 08:00:00 (CEST)Sveg A, Suède (2327): visibility: 21.04.2018 08:00:00 - 27.04.2018 08:00:00 (CEST)Sveg A, Suède (2327): Quantités de précipitations: 21.04.2018 08:00:00 - 27.04.2018 08:00:00 (CEST)
Date & Time tt [°C] td [°C] ff [km/h] ff [knt] fx [km/h] fx [knt] dd ppp [hPa] vv [km] rr [mm]
27.04.2018 08:00:00 2,0 -1,3 5 3 6 3 WNW 1004,3 50 0,0
27.04.2018 07:00:00 -0,2 -1,5 2 1 5 3 SSW 1004,1 50 0,0
27.04.2018 06:00:00 -1,9 -2,5 1 1 4 2 N 1004,0 50 0,0
27.04.2018 05:00:00 -2,3 -2,9 1 1 4 2 ENE 1004,0 50 0,0
27.04.2018 04:00:00 -1,4 -2,4 3 1 5 3 S 1003,8 50 0,0
27.04.2018 03:00:00 -1,2 -2,2 3 1 4 2 NW 1003,7 50 0,0
27.04.2018 02:00:00 -1,8 -2,6 1 0 5 3 SE 1003,5 50 0,0
27.04.2018 01:00:00 -1,3 -2,6 2 1 6 3 ENE 1003,1 50 0,0
27.04.2018 00:00:00 0,2 -1,9 2 1 6 4 SE 1002,8 50 0,0
26.04.2018 23:00:00 0,2 -2,3 3 1 5 3 WSW 1002,5 50 0,0
26.04.2018 22:00:00 0,8 -2,3 5 3 6 4 W 1002,1 50 0,0
26.04.2018 21:00:00 3,9 -2,1 4 2 17 9 W 1001,3 42 0,0
26.04.2018 20:00:00 7,8 -2,3 15 8 21 12 NW 1000,1 50 0,0
26.04.2018 19:00:00 8,8 -2,2 10 6 22 12 NW 999,4 50 0,0
26.04.2018 18:00:00 8,9 -2,7 9 5 23 12 WNW 999,2 50 0,0
26.04.2018 17:00:00 8,8 -2,8 17 9 33 18 NW 999,2 50 0,0
26.04.2018 16:00:00 9,0 -3,6 24 13 35 19 W 998,9 50 0,0
26.04.2018 15:00:00 9,7 -2,6 24 13 44 24 W 998,6 46 0,0
26.04.2018 14:00:00 9,1 -2,8 21 11 35 19 WNW 998,4 44 0,0
26.04.2018 13:00:00 7,8 -3,7 15 8 35 19 WNW 998,6 46 0,0
26.04.2018 12:00:00 6,7 -3,3 21 11 35 19 WNW 998,8 50 0,0
26.04.2018 11:00:00 6,6 -3,1 19 11 29 16 NW 998,7 50 0,0
26.04.2018 10:00:00 5,1 -3,2 19 10 31 17 WNW 998,9 50 0,0
26.04.2018 09:00:00 4,1 -2,5 10 6 16 9 W 998,9 50 0,0
26.04.2018 08:00:00 3,1 -2,2 9 5 16 9 W 998,9 50 0,0
26.04.2018 07:00:00 0,8 -2,1 8 4 12 6 W 999,1 48 0,0
26.04.2018 06:00:00 -1,4 -3,1 3 2 11 6 WSW 999,2 50 0,0
26.04.2018 05:00:00 -2,9 -4,0 4 2 7 4 WNW 999,4 50 0,0
26.04.2018 04:00:00 -4,5 -5,3 4 2 6 3 WNW 999,5 50 0,0
26.04.2018 03:00:00 -3,1 -5,4 8 4 10 5 W 999,3 50 0,0
26.04.2018 02:00:00 -4,1 -5,2 5 3 6 4 WNW 999,4 50 0,0
26.04.2018 01:00:00 -3,0 -4,4 6 3 8 4 W 999,2 50 0,0
26.04.2018 00:00:00 -1,5 -4,5 3 1 8 4 NW 998,9 50 0,0
25.04.2018 23:00:00 0,6 -4,8 5 3 10 5 SSW 998,3 50 0,0
25.04.2018 22:00:00 2,0 -4,5 10 5 18 10 WNW 997,9 50 0,0
25.04.2018 21:00:00 2,7 -5,7 13 7 21 11 WNW 997,2 50 0,0
25.04.2018 20:00:00 5,7 -5,9 16 8 27 15 NW 996,3 50 0,0
25.04.2018 19:00:00 7,2 -6,2 17 9 35 19 NW 995,7 46 0,0
25.04.2018 18:00:00 7,0 -6,0 18 10 35 19 NNW 995,9 50 0,0
25.04.2018 17:00:00 7,1 -5,9 22 12 36 19 WNW 995,6 45 0,0
25.04.2018 16:00:00 6,7 -6,0 25 14 47 26 WNW 995,7 50 0,0
25.04.2018 15:00:00 7,9 -4,9 23 12 42 23 WNW 995,4 50 0,0
25.04.2018 14:00:00 7,5 -5,6 28 15 39 21 WNW 995,3 46 0,0
25.04.2018 13:00:00 6,9 -4,5 20 11 36 20 WNW 995,2 50 0,0
25.04.2018 12:00:00 7,4 -4,4 22 12 37 20 NW 994,9 45 0,0
25.04.2018 11:00:00 6,6 -3,6 18 10 28 15 NW 995,0 50 0,0
25.04.2018 10:00:00 5,6 -2,0 16 8 28 15 NW 995,1 50 0,0
25.04.2018 09:00:00 3,2 -0,3 10 5 16 8 WNW 995,4 46 0,0
25.04.2018 08:00:00 2,5 -0,1 1 1 6 3 ENE 995,1 50 0,0
25.04.2018 07:00:00 1,2 -0,3 3 2 7 4 E 994,9 50 0,0
25.04.2018 06:00:00 0,2 -0,8 6 3 9 5 W 994,8 48 0,0
25.04.2018 05:00:00 -0,3 -1,1 3 2 8 5 NW 994,7 50 0,0
25.04.2018 04:00:00 0,0 -1,1 5 3 10 5 NNW 994,5 50 0,0
25.04.2018 03:00:00 -0,9 -1,7 4 2 18 10 NNE 994,3 50 0,0
25.04.2018 02:00:00 1,8 -0,9 9 5 17 9 WSW 993,7 49 0,0
25.04.2018 01:00:00 -0,4 -1,4 10 5 11 6 WNW 994,0 48 0,0
25.04.2018 00:00:00 2,2 -1,1 3 2 10 5 W 993,7 44 0,0
24.04.2018 23:00:00 4,8 -0,2 10 6 22 12 W 993,1 50 0,0
24.04.2018 22:00:00 5,7 -0,8 11 6 26 14 W 993,0 50 0,0
24.04.2018 21:00:00 6,6 -1,6 7 4 16 9 WSW 992,5 50 0,0
24.04.2018 20:00:00 8,8 -1,3 7 4 26 14 WSW 992,0 50 0,0
24.04.2018 19:00:00 9,0 -1,1 14 8 30 16 WSW 992,0 50 0,0
24.04.2018 18:00:00 9,3 -0,9 17 9 36 19 WSW 992,1 50 0,0
24.04.2018 17:00:00 9,7 -1,1 16 8 35 19 WSW 992,1 50 0,0
24.04.2018 16:00:00 9,6 -0,6 11 6 26 14 SW 992,4 50 0,0
24.04.2018 15:00:00 9,9 -0,6 15 8 29 16 WSW 992,8 49 0,0
24.04.2018 14:00:00 10,1 0,1 15 8 25 14 SW 993,2 48 0,0
24.04.2018 13:00:00 9,3 -0,1 11 6 21 11 WSW 993,6 47 0,0
24.04.2018 12:00:00 8,6 0,1 15 8 25 14 WSW 993,9 50 0,0
24.04.2018 11:00:00 7,3 0,7 16 9 32 17 WSW 994,2 50 0,0
24.04.2018 10:00:00 7,3 0,9 13 7 23 12 W 993,9 49 0,0
24.04.2018 09:00:00 5,9 1,0 14 8 24 13 WSW 994,0 50 0,0
24.04.2018 08:00:00 4,7 1,5 11 6 19 10 WSW 994,1 50 0,0
24.04.2018 07:00:00 3,3 1,5 14 7 21 11 WSW 994,4 50 0,0
24.04.2018 06:00:00 2,3 1,1 13 7 19 11 W 994,5 50 0,0
24.04.2018 05:00:00 2,2 1,5 10 5 21 12 WSW 994,5 50 0,0
24.04.2018 04:00:00 2,9 2,2 13 7 22 12 WSW 994,5 50 0,0
24.04.2018 03:00:00 0,8 0,8 4 2 7 4 WSW 994,9 6 0,4
24.04.2018 02:00:00 0,9 0,9 4 2 7 4 E 995,2 7 0,0
24.04.2018 01:00:00 1,1 1,1 4 2 9 5 ENE 995,8 49 0,0
24.04.2018 00:00:00 1,3 1,3 4 2 7 4 ENE 996,1 39 0,0
23.04.2018 23:00:00 1,5 1,4 7 4 11 6 E 996,6 15 0,3
23.04.2018 22:00:00 1,9 1,9 7 4 11 6 E 997,4 7 0,7
23.04.2018 21:00:00 2,0 1,7 8 4 14 8 E 998,0 3,8 0,2
23.04.2018 20:00:00 2,5 2,1 11 6 19 10 E 998,4 24 0,2
23.04.2018 19:00:00 2,9 2,0 8 5 15 8 E 999,2 50 0,1
23.04.2018 18:00:00 3,8 2,9 9 5 22 12 SE 999,9 43 0,7
23.04.2018 17:00:00 5,4 2,7 13 7 31 17 SSE 1000,3 23 0,0
23.04.2018 16:00:00 6,7 1,0 15 8 41 22 SSE 1000,7 50 0,0
23.04.2018 15:00:00 7,9 -1,1 18 10 34 18 SE 1001,1 50 0,0
23.04.2018 14:00:00 7,5 0,0 16 9 29 16 SE 1002,0 50 0,0
23.04.2018 13:00:00 6,6 0,9 16 9 32 17 ESE 1003,1 50 0,0
23.04.2018 12:00:00 6,7 0,6 13 7 23 12 E 1003,7 44 0,0
23.04.2018 11:00:00 6,9 0,6 12 6 21 11 ESE 1004,2 47 0,0
23.04.2018 10:00:00 4,4 0,4 13 7 19 11 ENE 1005,1 50 0,0
23.04.2018 09:00:00 3,4 0,3 9 5 23 12 NE 1005,9 50 0,0
23.04.2018 08:00:00 3,7 0,0 10 6 22 12 SE 1006,5 50 0,0
23.04.2018 07:00:00 3,3 0,2 5 3 21 11 NNE 1007,3 50 0,0
23.04.2018 06:00:00 2,8 -0,3 4 2 14 8 NE 1008,5 50 0,0
23.04.2018 05:00:00 2,5 -0,3 10 6 16 8 ENE 1008,9 50 0,0
23.04.2018 04:00:00 3,4 -1,0 9 5 16 9 ESE 1009,7 50 0,0
23.04.2018 03:00:00 3,3 -2,2 9 5 15 8 ESE 1010,4 50 0,0
23.04.2018 02:00:00 3,6 -2,8 3 2 30 16 NE 1010,9 50 0,0
23.04.2018 01:00:00 4,1 -3,0 14 7 22 12 SE 1011,2 50 0,0
23.04.2018 00:00:00 3,2 -3,2 10 5 15 8 SE 1011,9 50 0,0
22.04.2018 23:00:00 3,7 -3,3 10 5 16 9 ESE 1012,4 48 0,0
22.04.2018 22:00:00 4,5 -3,3 11 6 16 9 SE 1012,6 50 0,0
22.04.2018 21:00:00 5,0 -3,1 7 4 10 5 SE 1012,8 50 0,0
22.04.2018 20:00:00 8,5 -4,3 4 2 13 7 SW 1012,4 50 0,0
22.04.2018 19:00:00 10,3 -4,5 10 5 17 9 SSW 1012,2 50 0,0
22.04.2018 18:00:00 10,2 -3,9 8 5 18 10 S 1012,4 50 0,0
22.04.2018 17:00:00 9,6 -2,1 6 3 18 10 ENE 1013,1 50 0,0
22.04.2018 16:00:00 9,4 -2,6 7 4 12 7 NE 1013,6 50 0,0
22.04.2018 15:00:00 9,2 -3,4 8 5 16 9 E 1014,2 50 0,0
22.04.2018 14:00:00 8,8 -2,8 5 3 15 8 NNW 1014,7 50 0,0
22.04.2018 13:00:00 8,0 -1,5 7 4 19 10 W 1015,0 46 0,0
22.04.2018 12:00:00 7,6 -1,6 9 5 19 10 SW 1015,2 50 0,0
22.04.2018 11:00:00 6,3 -1,8 13 7 20 11 WNW 1015,7 50 0,0
22.04.2018 10:00:00 5,5 -1,4 13 7 21 11 W 1016,0 50 0,0
22.04.2018 09:00:00 4,7 -1,5 18 10 25 13 WNW 1016,0 50 0,0
22.04.2018 08:00:00 3,9 -1,5 11 6 22 12 WNW 1016,1 50 0,0
22.04.2018 07:00:00 2,3 -2,0 5 3 14 8 NW 1015,9 50 0,0
22.04.2018 06:00:00 0,6 -2,1 6 3 19 10 SSW 1015,8 50 0,0
22.04.2018 05:00:00 1,5 -2,3 13 7 27 15 W 1015,3 50 0,0
22.04.2018 04:00:00 2,2 -2,3 16 8 26 14 W 1015,0 50 0,0
22.04.2018 03:00:00 2,8 -2,1 13 7 31 17 W 1014,6 50 0,0
22.04.2018 02:00:00 3,5 -1,8 21 12 36 20 W 1014,1 50 0,0
22.04.2018 01:00:00 3,7 -1,9 22 12 33 18 W 1013,9 50 0,0
22.04.2018 00:00:00 4,0 -1,8 16 9 28 15 WSW 1013,8 33 0,0
21.04.2018 23:00:00 4,3 -1,9 16 9 31 17 W 1013,3 47 0,0
21.04.2018 22:00:00 4,6 -2,1 24 13 41 22 WSW 1012,6 50 0,0
21.04.2018 21:00:00 4,6 -2,1 19 10 36 19 W 1012,8 50 0,0
21.04.2018 20:00:00 5,2 -1,7 18 10 38 20 WNW 1012,6 50 0,0
21.04.2018 19:00:00 5,9 -2,0 22 12 48 26 W 1011,9 50 0,0
21.04.2018 18:00:00 6,5 -2,4 23 12 48 26 W 1011,4 50 0,0
21.04.2018 17:00:00 6,8 -2,4 32 17 51 27 WNW 1011,0 50 0,0
21.04.2018 16:00:00 7,7 -2,1 24 13 48 26 W 1010,5 50 0,0
21.04.2018 15:00:00 7,2 -2,0 28 15 56 30 W 1010,2 50 0,0
21.04.2018 14:00:00 6,9 -1,8 25 13 40 21 W 1009,7 29 0,0
21.04.2018 13:00:00 6,8 -2,1 29 15 59 32 W 1009,2 50 0,0
21.04.2018 12:00:00 6,5 -1,2 23 12 45 25 W 1008,7 50 0,0
21.04.2018 11:00:00 6,2 -1,2 29 16 49 27 W 1008,0 50 0,0
21.04.2018 10:00:00 6,0 -1,0 31 17 51 28 W 1007,2 50 0,0
21.04.2018 09:00:00 6,0 -1,2 27 14 40 21 W 1006,8 50 0,0
21.04.2018 08:00:00 3,1 1,3 10 5 16 9 NW 1007,3 50 0,0

tt = Température de l'air
td = dewpoint
ff = Vitesse du vent
fx = gusts
dd = Direction du vent
ppp = reduced air pressure
vv = visibility
rr = Quantités de précipitations

stations d'obs. à proximité